sat.trackr.live / text

‹ back to catalog

STARLINK-30962

NORAD 58458 · 2023-183X

PAYLOAD ACTIVE UNKNOWN

§ Identity

Operator
Country
US
Launch date
2023-11-28
Launch site
AFETR
Launch vehicle
Mass (kg)
RCS (m²)

Purposes: comms

External: N2YO · Heavens-Above · Gunter

§ Orbital elements

Epoch: 2026-09-19T15:40:48.322848Z

Period
94.27 min
Inclination
43.0054°
Eccentricity
0.0001479
Mean motion
15.27575481 rev/d
Perigee alt
482.0 km
Apogee alt
484.1 km
Semi-major
6,861.2 km
B*
2.7080e-5
RAAN
25.7802°
Arg perigee
267.8071°
Mean anomaly
92.2611°
Rev number
15,640

§ Raw data

STARLINK-309621 58458U 23183X   26262.65333707  .00000483  00000+0  27080-4 0  99942 58458  43.0054  25.7802 0001479 267.8071  92.2611 15.27575481156406

JSON: /api/v1/satellites/58458 · /tle

For live sub-satellite position, see the globe view (requires WebGL).

§ Visibility from observer

Set your observer location to see the next 7 days of passes ≥ 10°. The values pass through the URL so the page stays shareable.

No JS? Fill the form by hand. The geolocation button needs JavaScript.